Tracking 23581 objects as of 27-Jul-2021
HD Live streaming from Space Station
objects crossing your sky now

COSMOS 2491 DEB

Track COSMOS 2491 DEB now!
10-day predictions


NORAD ID: 45127
Int'l Code: 2013-076Z
Perigee: 1,407.4 km
Apogee: 1,496.6 km
Inclination: 82.5 °
Period: 114.8 minutes
Semi major axis: 7822 km
RCS: Unknown
Launch date: December 25, 2013
Source: Commonwealth of Independent States (former USSR) (CIS)
Launch site: PLESETSK MISSILE AND SPACE COMPLEX (PKMTR)

Note: This is SATELLITE DEBRIS
aabbcc
Your satellite tracking list
Your tracking list is empty




NASA's NSSDC Master Catalog

Two Line Element Set (TLE):
1 45127U 13076Z   21207.26125399  .00000324  00000-0  19329-2 0  9990
2 45127  82.4616 194.1849 0057027 299.2361  60.3030 12.54709543 68520
Source of the keplerian elements: AFSPC